TimeCDT,TemperatureF,Dew PointF,Humidity,Sea Level PressureIn,VisibilityMPH,Wind Direction,Wind SpeedMPH,Gust SpeedMPH,PrecipitationIn,Events,Conditions,WindDirDegrees,DateUTC
12:15 AM,77.0,73.4,89,29.96,10.0,SE,3.5,-,N/A,,Scattered Clouds,140,2013-08-08 05:15:00
12:35 AM,77.0,73.4,89,29.96,7.0,Calm,Calm,-,N/A,,Scattered Clouds,0,2013-08-08 05:35:00
12:55 AM,77.0,73.4,89,29.96,10.0,SSE,3.5,-,N/A,,Overcast,150,2013-08-08 05:55:00
1:15 AM,75.2,73.4,94,29.96,10.0,Calm,Calm,-,N/A,,Scattered Clouds,0,2013-08-08 06:15:00
1:35 AM,75.2,73.4,94,29.95,7.0,Calm,Calm,-,N/A,,Clear,0,2013-08-08 06:35:00
1:55 AM,75.2,73.4,94,29.95,10.0,SE,3.5,-,N/A,,Scattered Clouds,140,2013-08-08 06:55:00
2:15 AM,73.4,71.6,94,29.95,10.0,Calm,Calm,-,N/A,,Scattered Clouds,0,2013-08-08 07:15:00
2:35 AM,73.4,71.6,94,29.94,7.0,SE,3.5,-,N/A,,Scattered Clouds,130,2013-08-08 07:35:00
2:55 AM,73.4,71.6,94,29.94,10.0,ESE,3.5,-,N/A,,Mostly Cloudy,110,2013-08-08 07:55:00
3:15 AM,73.4,71.6,94,29.93,10.0,SE,5.8,-,N/A,,Mostly Cloudy,140,2013-08-08 08:15:00
3:35 AM,73.4,71.6,94,29.93,10.0,SE,3.5,-,N/A,,Scattered Clouds,140,2013-08-08 08:35:00
3:55 AM,73.4,71.6,94,29.92,10.0,SSE,3.5,-,N/A,,Scattered Clouds,160,2013-08-08 08:55:00
4:15 AM,73.4,71.6,94,29.93,10.0,South,4.6,-,N/A,,Scattered Clouds,170,2013-08-08 09:15:00
4:35 AM,73.4,71.6,94,29.93,7.0,Calm,Calm,-,N/A,,Scattered Clouds,0,2013-08-08 09:35:00
4:55 AM,73.4,71.6,94,29.94,7.0,South,3.5,-,N/A,,Scattered Clouds,170,2013-08-08 09:55:00
5:15 AM,73.4,71.6,94,29.94,7.0,Calm,Calm,-,N/A,,Mostly Cloudy,0,2013-08-08 10:15:00
5:35 AM,73.4,71.6,94,29.94,7.0,Calm,Calm,-,N/A,,Scattered Clouds,0,2013-08-08 10:35:00
5:55 AM,73.4,71.6,94,29.94,7.0,SSE,3.5,-,N/A,,Clear,150,2013-08-08 10:55:00
6:15 AM,71.6,71.6,100,29.94,5.0,Calm,Calm,-,N/A,,Clear,0,2013-08-08 11:15:00
6:35 AM,71.6,71.6,100,29.94,4.0,Calm,Calm,-,N/A,,Clear,0,2013-08-08 11:35:00
6:55 AM,73.4,71.6,94,29.94,4.0,Calm,Calm,-,N/A,,Clear,0,2013-08-08 11:55:00
7:15 AM,73.4,71.6,94,29.95,5.0,Calm,Calm,-,N/A,,Clear,0,2013-08-08 12:15:00
7:35 AM,73.4,71.6,94,29.95,7.0,Calm,Calm,-,N/A,,Clear,0,2013-08-08 12:35:00
7:55 AM,77.0,73.4,89,29.96,7.0,South,3.5,-,N/A,,Scattered Clouds,170,2013-08-08 12:55:00
8:15 AM,77.0,73.4,89,29.96,10.0,SSW,3.5,-,N/A,,Scattered Clouds,200,2013-08-08 13:15:00
8:35 AM,78.8,73.4,83,29.97,10.0,Calm,Calm,-,N/A,,Clear,0,2013-08-08 13:35:00
8:55 AM,80.6,73.4,79,29.97,10.0,SSW,3.5,-,N/A,,Clear,200,2013-08-08 13:55:00
9:15 AM,80.6,75.2,84,29.97,10.0,Calm,Calm,-,N/A,,Clear,0,2013-08-08 14:15:00
9:35 AM,82.4,75.2,79,29.97,10.0,Calm,Calm,-,N/A,,Clear,0,2013-08-08 14:35:00
9:55 AM,82.4,73.4,74,29.97,10.0,Calm,Calm,-,N/A,,Clear,0,2013-08-08 14:55:00
10:15 AM,86.0,75.2,70,29.98,10.0,Calm,Calm,-,N/A,,Clear,0,2013-08-08 15:15:00
10:35 AM,86.0,75.2,70,29.99,10.0,Calm,Calm,-,N/A,,Clear,0,2013-08-08 15:35:00
10:55 AM,87.8,77.0,70,29.99,10.0,Calm,Calm,-,N/A,,Clear,0,2013-08-08 15:55:00
11:15 AM,87.8,75.2,66,29.99,10.0,Calm,Calm,-,N/A,,Clear,0,2013-08-08 16:15:00
11:35 AM,87.8,77.0,70,29.98,10.0,Calm,Calm,-,N/A,,Clear,0,2013-08-08 16:35:00
11:55 AM,89.6,77.0,66,29.98,10.0,Calm,Calm,-,N/A,,Clear,0,2013-08-08 16:55:00
12:15 PM,89.6,77.0,66,29.97,10.0,Calm,Calm,-,N/A,,Clear,0,2013-08-08 17:15:00
12:35 PM,89.6,77.0,66,29.97,10.0,Calm,Calm,-,N/A,,Clear,0,2013-08-08 17:35:00
12:55 PM,89.6,75.2,62,29.96,10.0,Calm,Calm,-,N/A,,Clear,0,2013-08-08 17:55:00
1:15 PM,89.6,77.0,66,29.95,10.0,Calm,Calm,-,N/A,,Clear,0,2013-08-08 18:15:00
1:35 PM,91.4,77.0,63,29.94,10.0,SE,3.5,-,N/A,,Scattered Clouds,130,2013-08-08 18:35:00
1:55 PM,91.4,77.0,63,29.93,10.0,East,4.6,-,N/A,,Mostly Cloudy,100,2013-08-08 18:55:00
2:15 PM,91.4,75.2,59,29.92,10.0,ESE,4.6,-,N/A,,Scattered Clouds,110,2013-08-08 19:15:00
2:35 PM,91.4,77.0,63,29.91,10.0,ESE,8.1,-,N/A,,Scattered Clouds,120,2013-08-08 19:35:00
2:55 PM,93.2,77.0,59,29.91,10.0,SE,8.1,-,N/A,,Scattered Clouds,140,2013-08-08 19:55:00
3:15 PM,91.4,77.0,63,29.91,10.0,SE,9.2,-,N/A,,Scattered Clouds,130,2013-08-08 20:15:00
3:35 PM,91.4,73.4,55,29.91,10.0,SE,4.6,-,N/A,,Scattered Clouds,130,2013-08-08 20:35:00
3:55 PM,91.4,75.2,59,29.90,10.0,SSE,4.6,-,N/A,,Clear,160,2013-08-08 20:55:00
4:15 PM,93.2,75.2,56,29.90,10.0,ESE,9.2,-,N/A,,Clear,120,2013-08-08 21:15:00
4:35 PM,91.4,73.4,55,29.90,10.0,SE,8.1,-,N/A,,Clear,140,2013-08-08 21:35:00
4:55 PM,91.4,77.0,63,29.90,10.0,SE,8.1,-,N/A,Thunderstorm,Clear,140,2013-08-08 21:55:00
5:15 PM,91.4,75.2,59,29.91,10.0,SE,4.6,-,N/A,,Scattered Clouds,140,2013-08-08 22:15:00
5:35 PM,89.6,77.0,66,29.93,10.0,ESE,5.8,-,N/A,Thunderstorm,Scattered Clouds,110,2013-08-08 22:35:00
5:55 PM,82.4,71.6,70,29.92,10.0,NNE,18.4,26.5,N/A,Thunderstorm,Thunderstorm,20,2013-08-08 22:55:00
6:15 PM,80.6,68.0,65,29.93,10.0,Calm,Calm,-,N/A,Thunderstorm,Overcast,0,2013-08-08 23:15:00
6:35 PM,78.8,69.8,74,29.93,10.0,West,4.6,-,N/A,Rain-Thunderstorm,Light Thunderstorms and Rain,270,2013-08-08 23:35:00
6:55 PM,77.0,71.6,83,29.95,3.0,ESE,4.6,-,0.04,Rain-Thunderstorm,Heavy Thunderstorms and Rain,110,2013-08-08 23:55:00
7:15 PM,75.2,71.6,89,29.94,3.0,ESE,9.2,-,0.10,Rain-Thunderstorm,Thunderstorms and Rain,110,2013-08-09 00:15:00
7:35 PM,77.0,71.6,83,29.95,10.0,SE,5.8,-,0.11,Rain-Thunderstorm,Light Thunderstorms and Rain,140,2013-08-09 00:35:00
7:55 PM,77.0,71.6,83,29.94,10.0,SE,4.6,-,0.11,Thunderstorm,Thunderstorm,140,2013-08-09 00:55:00
8:15 PM,75.2,71.6,89,29.93,10.0,East,6.9,-,N/A,Thunderstorm,Clear,80,2013-08-09 01:15:00
8:35 PM,73.4,71.6,94,29.94,10.0,Calm,Calm,-,N/A,,Clear,0,2013-08-09 01:35:00
8:55 PM,73.4,71.6,94,29.94,7.0,Calm,Calm,-,N/A,,Clear,0,2013-08-09 01:55:00
9:15 PM,73.4,71.6,94,29.94,10.0,Calm,Calm,-,N/A,,Clear,0,2013-08-09 02:15:00
9:35 PM,73.4,71.6,94,29.95,5.0,Calm,Calm,-,N/A,,Clear,0,2013-08-09 02:35:00
9:55 PM,75.2,73.4,94,29.95,7.0,ESE,5.8,-,N/A,,Clear,110,2013-08-09 02:55:00
10:15 PM,77.0,73.4,89,29.96,10.0,Calm,Calm,-,N/A,,Clear,0,2013-08-09 03:15:00
10:35 PM,73.4,73.4,100,29.96,5.0,Calm,Calm,-,N/A,,Clear,0,2013-08-09 03:35:00
10:55 PM,77.0,73.4,89,29.96,7.0,Calm,Calm,-,N/A,,Clear,0,2013-08-09 03:55:00
11:15 PM,75.2,73.4,94,29.96,7.0,Calm,Calm,-,N/A,,Clear,0,2013-08-09 04:15:00
11:35 PM,73.4,71.6,94,29.96,5.0,Calm,Calm,-,N/A,,Clear,0,2013-08-09 04:35:00
11:55 PM,73.4,71.6,94,29.96,4.0,Calm,Calm,-,N/A,,Clear,0,2013-08-09 04:55:00